(173997) = 1995 UQ34 = 2001 XJ207

Discovered at Socorro on 2001-12-11 by LINEAR.

Orbit

Orbit type: Main Belt

Note: WebGL enabled browser required.

epoch2023-09-13.0
epoch JD2460200.5
perihelion date2018-03-16.15999
perihelion JD2458193.65999
argument of perihelion (°)221.56870
ascending node (°)170.35462
inclination (°)5.97778
eccentricity0.1865873
perihelion distance (AU)2.5623634
Tisserand w.r.t. Jupiter3.2
ΔV w.r.t. Earth (km/sec)10.2
semimajor axis (AU)3.1501393
mean anomaly (°)353.77078
mean daily motion (°/day)0.17628250
aphelion distance (AU)3.738
period (years)5.59
P-vector [x]0.84815202
P-vector [y]0.50937284
P-vector [z]0.14552476
Q-vector [x]-0.52946546
Q-vector [y]0.80603214
Q-vector [z]0.26453452
absolute magnitude15.35
phase slope0.15
uncertainty0
referenceMPEC 2024-A158
observations used643
oppositions18
arc length (days)10311
first opposition used1995
last opposition used2024
residual rms (arc-secs)0.70
perturbers coarse indicatorM-v
perturbers precise indicator003Ek
first observation date used1995-10-21.0
last observation date used2024-01-13.0
computer nameMPCLINUX
JD of orbit computation2456789.347034
perihelion JD uncertainty (days)5.8714E-05
argument of perihelion uncertainty (°)3.5345E-05
ascending node uncertainty (°)3.3529E-05
inclination uncertainty (°)4.1481E-06
eccentricity uncertainty 3.4738E-08
perihelion distance uncertainty (AU)1.0886E-07
Minimum Orbit Intersection Distances (in AU)
for orbit epoch: 2460200.5, reference: E2024-AF8
Mercury2.23207
Venus1.8385
Earth1.57076
Mars1.1214
Jupiter1.7151
Saturn5.91364
Uranus14.8316
Neptune26.979

Observations

653 total observations over interval: 1995 10 21.31732 – 2024 01 13.131549
These data are available for download (format description).

Date (UT) J2000 RA J2000 Dec Magn Location Ref
1995 10 21.31732 02 07 47.10 +06 24 21.0 18.7 V 691 – Steward Observatory, Kitt Peak-Spacewatch MPC 26099
1995 10 21.34449 02 07 45.86 +06 24 11.0   691 – Steward Observatory, Kitt Peak-Spacewatch MPC 26099
1995 10 21.36560 02 07 44.92 +06 24 03.1   691 – Steward Observatory, Kitt Peak-Spacewatch MPC 26099
1995 10 26.26355 02 04 10.59 +05 54 28.0   691 – Steward Observatory, Kitt Peak-Spacewatch MPC 26099
1995 10 26.29699 02 04 09.05 +05 54 16.2   691 – Steward Observatory, Kitt Peak-Spacewatch MPC 26099
1995 10 26.31929 02 04 08.03 +05 54 08.3 18.7 V 691 – Steward Observatory, Kitt Peak-Spacewatch MPC 26099
1997 03 13.13961 08 39 09.03 +14 21 42.7 20.8 V 691 – Steward Observatory, Kitt Peak-Spacewatch MPS 59860
1997 03 13.16208 08 39 08.68 +14 21 46.9 20.9 V 691 – Steward Observatory, Kitt Peak-Spacewatch MPS 59860
1997 03 13.18507 08 39 08.26 +14 21 51.4 20.9 V 691 – Steward Observatory, Kitt Peak-Spacewatch MPS 59860
2001 11 17.35927 05 28 29.94 +14 17 41.6 19.1   704 – Lincoln Laboratory ETS, New Mexico MPS 59860
2001 11 17.37376 05 28 29.39 +14 17 40.0 19.4   704 – Lincoln Laboratory ETS, New Mexico MPS 59860
2001 11 17.38857 05 28 28.85 +14 17 37.8 20.0   704 – Lincoln Laboratory ETS, New Mexico MPS 59860
2001 11 17.40285 05 28 28.25 +14 17 35.4 19.7   704 – Lincoln Laboratory ETS, New Mexico MPS 59860
2001 11 17.41713 05 28 27.71 +14 17 33.7 19.4   704 – Lincoln Laboratory ETS, New Mexico MPS 59860
2001 12 11.30095 05 09 39.94 +13 35 14.8 19.5   704 – Lincoln Laboratory ETS, New Mexico MPS 45380
2001 12 11.31619 05 09 39.13 +13 35 14.5 19.4   704 – Lincoln Laboratory ETS, New Mexico MPS 45380
2001 12 11.33213 05 09 38.26 +13 35 13.0 19.5   704 – Lincoln Laboratory ETS, New Mexico MPS 45380
2001 12 11.34712 05 09 37.44 +13 35 12.7 19.4   704 – Lincoln Laboratory ETS, New Mexico MPS 45380
2001 12 11.36336 05 09 36.63 +13 35 10.7 19.6   704 – Lincoln Laboratory ETS, New Mexico MPS 45380
2001 12 18.30593 05 03 45.06 +13 31 05.2 19.3   704 – Lincoln Laboratory ETS, New Mexico MPS 45380
2001 12 18.32260 05 03 44.20 +13 31 05.1 19.4   704 – Lincoln Laboratory ETS, New Mexico MPS 45381
2001 12 18.33809 05 03 43.41 +13 31 04.6 19.4   704 – Lincoln Laboratory ETS, New Mexico MPS 45381
2001 12 18.35411 05 03 42.61 +13 31 04.0 19.6   704 – Lincoln Laboratory ETS, New Mexico MPS 45381
2003 04 05.15168 10 29 02.81 +08 52 17.6 21.0 V 691 – Steward Observatory, Kitt Peak-Spacewatch MPS 76094
2003 04 05.17928 10 29 02.16 +08 52 23.6 21.2 V 691 – Steward Observatory, Kitt Peak-Spacewatch MPS 76094
2003 04 05.20867 10 29 01.50 +08 52 29.3 21.3 V 691 – Steward Observatory, Kitt Peak-Spacewatch MPS 76094
2006 07 21.36830 00 31 11.53 +03 43 47.4 19.7 V G96 – Mt. Lemmon Survey MPS 174818
2006 07 21.37285 00 31 11.67 +03 43 47.6 20.2 V G96 – Mt. Lemmon Survey MPS 174818
2006 07 21.37743 00 31 11.85 +03 43 48.3 20.1 V G96 – Mt. Lemmon Survey MPS 174818
2006 07 21.38194 00 31 11.96 +03 43 48.6 20.1 V G96 – Mt. Lemmon Survey MPS 174818
2006 07 21.42023 00 31 13.11 +03 43 51.0 20.5 V 703 – Catalina Sky Survey MPS 174818
2006 07 21.42796 00 31 13.36 +03 43 53.0 20.1 V 703 – Catalina Sky Survey MPS 174818
2006 07 21.43565 00 31 13.62 +03 43 53.1 20.6 V 703 – Catalina Sky Survey MPS 174818
2006 07 21.44338 00 31 13.87 +03 43 52.6 19.9 V 703 – Catalina Sky Survey MPS 174818
2006 08 17.45868 00 37 59.50 +03 28 14.1 20.1 R 644 – Palomar Mountain/NEAT MPS 175968
2006 08 17.46977 00 37 59.44 +03 28 12.0 19.4 R 644 – Palomar Mountain/NEAT MPS 175968
2006 08 17.47966 00 37 59.42 +03 28 10.5 19.8 R 644 – Palomar Mountain/NEAT MPS 175968
2006 08 22.48419 00 37 29.07 +03 12 03.3 19.5 R 644 – Palomar Mountain/NEAT MPS 175968
2006 08 22.49537 00 37 28.90 +03 12 01.0 19.4 R 644 – Palomar Mountain/NEAT MPS 175968
2006 08 22.50528 00 37 28.81 +03 11 58.5 19.2 R 644 – Palomar Mountain/NEAT MPS 175968
2006 09 13.44288 00 29 03.83 +01 16 45.5 19.6 R 644 – Palomar Mountain/NEAT MPS 179167
2006 09 13.45272 00 29 03.48 +01 16 41.6 18.5 R 644 – Palomar Mountain/NEAT MPS 179167
2006 09 13.46381 00 29 03.05 +01 16 37.2 18.7 R 644 – Palomar Mountain/NEAT MPS 179167
2006 09 15.31780 00 27 57.79 +01 04 17.8   691 – Steward Observatory, Kitt Peak-Spacewatch MPS 179167
2006 09 15.33510 00 27 57.13 +01 04 10.7   691 – Steward Observatory, Kitt Peak-Spacewatch MPS 179167
2006 09 15.35241 00 27 56.48 +01 04 03.8   691 – Steward Observatory, Kitt Peak-Spacewatch MPS 179167
2006 09 16.33726 00 27 20.64 +00 57 23.8 19.3   705 – Apache Point MPS 191922
2006 09 16.33808 00 27 20.61 +00 57 23.5 18.8 V 705 – Apache Point MPS 191922
2006 09 17.23194 00 26 47.62 +00 51 17.5 18.9   704 – Lincoln Laboratory ETS, New Mexico MPS 179167
2006 09 17.24342 00 26 47.18 +00 51 12.9 19.4   704 – Lincoln Laboratory ETS, New Mexico MPS 179167
2006 09 17.25483 00 26 46.77 +00 51 08.3 19.1   704 – Lincoln Laboratory ETS, New Mexico MPS 179167
2006 09 17.26623 00 26 46.25 +00 51 04.0 19.3   704 – Lincoln Laboratory ETS, New Mexico MPS 179167
2006 09 17.27786 00 26 45.85 +00 50 58.9 19.5   704 – Lincoln Laboratory ETS, New Mexico MPS 179167
2006 09 18.30313 00 26 07.14 +00 43 54.4 18.6 R 699 – Lowell Observatory-LONEOS MPS 179167
2006 09 18.32508 00 26 06.30 +00 43 45.5   699 – Lowell Observatory-LONEOS MPS 179167
2006 09 18.34699 00 26 05.36 +00 43 36.4   699 – Lowell Observatory-LONEOS MPS 179167
2006 09 19.22684 00 25 31.93 +00 37 30.5 19.1 V 691 – Steward Observatory, Kitt Peak-Spacewatch MPS 179167
2006 09 19.24417 00 25 31.23 +00 37 23.1 19.1 V 691 – Steward Observatory, Kitt Peak-Spacewatch MPS 179167
2006 09 19.26149 00 25 30.53 +00 37 15.9 19.0 V 691 – Steward Observatory, Kitt Peak-Spacewatch MPS 179167
2006 09 20.22331 00 24 53.32 +00 30 31.9 19.0   704 – Lincoln Laboratory ETS, New Mexico MPS 179167
2006 09 20.23474 00 24 52.80 +00 30 28.5 19.5   704 – Lincoln Laboratory ETS, New Mexico MPS 179167
2006 09 20.24613 00 24 52.36 +00 30 23.5 20.0   704 – Lincoln Laboratory ETS, New Mexico MPS 179167
2006 09 20.25751 00 24 51.80 +00 30 18.1 19.3   704 – Lincoln Laboratory ETS, New Mexico MPS 179167
2006 09 20.26966 00 24 51.32 +00 30 13.2 19.6   704 – Lincoln Laboratory ETS, New Mexico MPS 179167
2006 09 20.28789 00 24 50.62 +00 30 05.2 19.0   705 – Apache Point MPS 191922
2006 09 20.28872 00 24 50.59 +00 30 04.9 18.7 V 705 – Apache Point MPS 191922
2006 09 22.29699 00 23 31.16 +00 15 56.0 19.3   705 – Apache Point MPS 191922
2006 09 22.29782 00 23 31.13 +00 15 55.6 18.7 V 705 – Apache Point MPS 191922
2006 09 23.22278 00 22 54.14 +00 09 22.7 19.1 V 691 – Steward Observatory, Kitt Peak-Spacewatch MPS 180852
2006 09 23.24015 00 22 53.41 +00 09 15.3 19.0 V 691 – Steward Observatory, Kitt Peak-Spacewatch MPS 180852
2006 09 23.25752 00 22 52.69 +00 09 08.0 19.0 V 691 – Steward Observatory, Kitt Peak-Spacewatch MPS 180852
2006 09 26.28443 00 20 49.44 -00 12 23.4 18.4 C 704 – Lincoln Laboratory ETS, New Mexico MPS 294292
2006 09 26.29656 00 20 48.92 -00 12 28.0 18.9 C 704 – Lincoln Laboratory ETS, New Mexico MPS 294292
2006 09 26.30887 00 20 48.42 -00 12 33.6 18.7 C 704 – Lincoln Laboratory ETS, New Mexico MPS 294292
2006 09 26.32104 00 20 47.86 -00 12 39.4 18.4 C 704 – Lincoln Laboratory ETS, New Mexico MPS 294292
2006 09 26.33329 00 20 47.33 -00 12 43.1 18.7 C 704 – Lincoln Laboratory ETS, New Mexico MPS 294292
2006 09 27.21851 00 20 11.16 -00 19 00.9 18.5   704 – Lincoln Laboratory ETS, New Mexico MPS 180852
2006 09 27.23065 00 20 10.58 -00 19 05.2 18.8   704 – Lincoln Laboratory ETS, New Mexico MPS 180852
2006 09 27.24281 00 20 10.12 -00 19 10.7 18.6   704 – Lincoln Laboratory ETS, New Mexico MPS 180852
2006 09 27.25513 00 20 09.56 -00 19 16.6 18.8   704 – Lincoln Laboratory ETS, New Mexico MPS 180852
2006 09 27.26730 00 20 09.02 -00 19 21.4 18.5   704 – Lincoln Laboratory ETS, New Mexico MPS 180852
2006 09 27.31486 00 20 07.10 -00 19 42.4 19.1   705 – Apache Point MPS 191922
2006 09 27.31568 00 20 07.07 -00 19 42.7 18.6 V 705 – Apache Point MPS 191922
2006 09 28.20763 00 19 30.57 -00 26 02.0 19.0 V 691 – Steward Observatory, Kitt Peak-Spacewatch MPS 180852
2006 09 28.22498 00 19 29.69 -00 26 09.0 18.4   704 – Lincoln Laboratory ETS, New Mexico MPS 180852
